GW4207 Weather Reports


time (UTC)temp
C
wind
direction
speed
KPH
gust
KPH
rain 1hr
cm
rain 24hr
cm
rain mn
cm
humidity
%
barometer
mb
20260503005929 6 89 1.6 3.2 0.00 0.00 0.00 54 1016.4
20260503005427 7 85 1.6 3.2 0.00 0.00 0.00 53 1016.3
20260503004940 7 88 1.6 3.2 0.00 0.00 0.00 53 1016.1
20260503004429 7 89 1.6 3.2 0.00 0.00 0.00 53 1016.2
20260503003929 7 97 1.6 3.2 0.00 0.00 0.00 52 1016.4
20260503003646 7 112 0.0 3.2 0.00 0.00 0.00 52 1016.1
20260503003147 7 89 1.6 3.2 0.00 0.00 0.00 52 1016.2
20260503002426 7 82 1.6 3.2 0.00 0.00 0.00 52 1016.3
20260503001928 8 108 1.6 3.2 0.00 0.00 0.00 52 1016.1
20260503001433 8 79 0.0 3.2 0.00 0.00 0.00 51 1016.1
20260503000927 8 87 1.6 4.8 0.00 0.00 0.00 51 1016.3
20260503000645 8 87 0.0 4.8 0.00 0.00 0.00 51 1016.3
20260503000150 8 30 0.0 3.2 0.00 0.00 0.00 51 1016.2
20260502235643 8 92 0.0 4.8 0.00 0.00 0.00 50 1016.3
20260502234925 8 116 1.6 4.8 0.00 0.00 0.00 50 1016.1
20260502234423 8 60 3.2 4.8 0.00 0.00 0.00 50 1016.1
20260502233930 8 218 1.6 3.2 0.00 0.00 0.00 51 1016.2
20260502233422 8 77 1.6 4.8 0.00 0.00 0.00 51 1016.4
20260502232923 8 77 1.6 4.8 0.00 0.00 0.00 51 1016.0
20260502232422 8 105 0.0 3.2 0.00 0.00 0.00 50 1015.9
20260502231923 8 72 1.6 4.8 0.00 0.00 0.00 50 1016.4
20260502231432 8 217 0.0 4.8 0.00 0.00 0.00 50 1016.4
20260502231153 8 153 3.2 4.8 0.00 0.00 0.00 50 1016.5
20260502230420 8 63 0.0 3.2 0.00 0.00 0.00 50 1016.4
20260502225922 8 99 3.2 3.2 0.00 0.00 0.00 50 1016.5
20260502225420 8 117 0.0 3.2 0.00 0.00 0.00 50 1016.4
20260502224921 8 80 1.6 4.8 0.00 0.00 0.00 50 1016.3
20260502224419 8 46 3.2 4.8 0.00 0.00 0.00 50 1016.1
20260502223920 8 47 3.2 4.8 0.00 0.00 0.00 50 1016.3
20260502223426 8 135 0.0 6.4 0.00 0.00 0.00 50 1016.4
20260502222921 8 108 1.6 6.4 0.00 0.00 0.00 50 1016.4
20260502222644 8 55 3.2 6.4 0.00 0.00 0.00 49 1016.5
20260502221919 9 47 3.2 6.4 0.00 0.00 0.00 49 1016.4
20260502221418 9 62 0.0 6.4 0.00 0.00 0.00 49 1016.5
20260502220919 9 151 0.0 6.4 0.00 0.00 0.00 50 1016.2
20260502220416 9 108 3.2 4.8 0.00 0.00 0.00 50 1016.5
20260502215929 8 59 3.2 4.8 0.00 0.00 0.00 50 1016.4
20260502215417 8 33 3.2 8.0 0.00 0.00 0.00 50 1016.3
20260502214943 9 51 4.8 8.0 0.00 0.00 0.00 50 1016.3
20260502214415 9 94 6.4 8.0 0.00 0.00 0.00 50 1016.1
20260502213916 9 56 1.6 4.8 0.00 0.00 0.00 49 1016.4
20260502213415 9 15 3.2 6.4 0.00 0.00 0.00 49 1016.4
20260502212916 9 88 3.2 6.4 0.00 0.00 0.00 49 1016.5
20260502212637 9 62 0.0 9.7 0.00 0.00 0.00 49 1016.4
20260502211915 9 51 3.2 9.7 0.00 0.00 0.00 49 1016.4
20260502211413 9 63 1.6 8.0 0.00 0.00 0.00 49 1016.3
20260502211354 9 103 1.6 4.8 0.00 0.00 0.00 49 1016.4
20260502210412 9 271 3.2 4.8 0.00 0.00 0.00 49 1016.6
20260502205909 9 227 0.0 4.8 0.00 0.00 0.00 49 1016.4
20260502205412 9 102 0.0 6.4 0.00 0.00 0.00 49 1016.4
20260502205128 9 50 3.2 6.4 0.00 0.00 0.00 49 1016.5
20260502204407 9 159 1.6 6.4 0.00 0.00 0.00 50 1016.6
20260502203910 9 86 3.2 6.4 0.00 0.00 0.00 51 1016.6
20260502203410 9 95 1.6 6.4 0.00 0.00 0.00 51 1016.6
20260502202907 9 116 1.6 6.4 0.00 0.00 0.00 50 1016.7
20260502202420 9 84 6.4 6.4 0.00 0.00 0.00 50 1017.0
20260502201908 9 29 1.6 4.8 0.00 0.00 0.00 50 1016.8
20260502201408 9 77 0.0 4.8 0.00 0.00 0.00 50 1016.9
20260502200907 10 109 1.6 6.4 0.00 0.00 0.00 49 1016.8
20260502200408 10 108 3.2 6.4 0.00 0.00 0.00 50 1017.1
20260502195907 10 29 4.8 6.4 0.00 0.00 0.00 50 1016.9
20260502195417 10 47 0.0 6.4 0.00 0.00 0.00 50 1017.0
20260502194906 9 43 3.2 6.4 0.00 0.00 0.00 50 1017.0
20260502194407 9 54 3.2 6.4 0.00 0.00 0.00 49 1017.2
20260502193905 9 322 1.6 6.4 0.00 0.00 0.00 49 1016.8
20260502193406 9 124 0.0 6.4 0.00 0.00 0.00 48 1017.4
20260502192905 9 124 0.0 6.4 0.00 0.00 0.00 50 1017.3
20260502192414 9 9 3.2 9.7 0.00 0.00 0.00 51 1017.5
20260502191903 9 29 3.2 9.7 0.00 0.00 0.00 51 1017.4
20260502191404 10 82 4.8 6.4 0.00 0.00 0.00 50 1017.3
20260502190902 10 23 3.2 6.4 0.00 0.00 0.00 52 1017.5
20260502190403 9 125 1.6 6.4 0.00 0.00 0.00 51 1017.3
20260502185902 9 55 1.6 8.0 0.00 0.00 0.00 52 1017.6
20260502185637 8 43 3.2 8.0 0.00 0.00 0.00 51 1017.4
20260502184900 8 50 3.2 6.4 0.00 0.00 0.00 51 1017.3
20260502184402 8 106 3.2 8.0 0.00 0.00 0.00 51 1017.6
20260502183859 8 65 0.0 8.0 0.00 0.00 0.00 51 1017.8
20260502183401 9 89 3.2 8.0 0.00 0.00 0.00 52 1017.9
20260502183123 9 80 4.8 8.0 0.00 0.00 0.00 52 1017.5
20260502182408 8 76 1.6 6.4 0.00 0.00 0.00 52 1017.6
20260502181858 8 55 0.0 6.4 0.00 0.00 0.00 51 1017.8
20260502181400 8 74 3.2 6.4 0.00 0.00 0.00 51 1017.9
20260502181346 9 29 0.0 8.0 0.00 0.00 0.00 52 1017.5
20260502180332 8 35 1.6 8.0 0.00 0.00 0.00 53 1018.0
20260502170336 8 29 0.0 6.4 0.00 0.00 0.00 54 1018.5
20260502164320 7 118 1.6 8.0 0.00 0.00 0.00 54 1018.3
20260502164047 7 107 1.6 8.0 0.00 0.00 0.00 54 1018.4
20260502163330 7 87 6.4 8.0 0.00 0.00 0.00 54 1018.6
20260502162824 8 97 1.6 12.9 0.00 0.00 0.00 55 1018.5
20260502162316 7 42 3.2 12.9 0.00 0.00 0.00 55 1018.4
20260502161817 7 62 3.2 9.7 0.00 0.00 0.00 56 1018.5
20260502161317 8 77 0.0 9.7 0.00 0.00 0.00 56 1018.7
20260502160817 7 122 0.0 9.7 0.00 0.00 0.00 57 1018.5
20260502160318 7 102 4.8 11.3 0.00 0.00 0.00 57 1018.5
20260502152317 6 46 0.0 9.7 0.00 0.00 0.00 59 1018.5
20260502151821 6 30 3.2 9.7 0.00 0.00 0.00 60 1018.1
20260502151317 6 89 3.2 8.0 0.00 0.00 0.00 60 1018.3
20260502150817 6 81 4.8 8.0 0.00 0.00 0.00 60 1018.6
20260502150316 6 52 0.0 8.0 0.00 0.00 0.00 60 1018.2
20260502130505 4 32 0.0 9.7 0.00 0.00 0.00 69 1018.2
20260502130225 3 111 4.8 9.7 0.00 0.00 0.00 69 1018.2
20260502123734 3 309 3.2 8.0 0.00 0.03 0.00 70 1018.3
20260502123450 2 87 4.8 8.0 0.00 0.03 0.00 70 1018.1
20260502122512 2 80 3.2 6.4 0.00 0.03 0.00 71 1018.1
20260502122448 2 62 1.6 9.7 0.00 0.03 0.00 71 1018.3
20260502121459 2 80 3.2 9.7 0.00 0.03 0.00 71 1018.1
20260502120958 2 68 6.4 8.0 0.00 0.03 0.00 71 1017.9
20260502120720 2 83 1.6 8.0 0.00 0.03 0.00 71 1017.9
20260502120447 2 52 0.0 4.8 0.00 0.03 0.00 71 1018.1
20260502115458 1 77 3.2 4.8 0.00 0.03 0.00 71 1017.9
20260502115002 1 66 0.0 4.8 0.00 0.03 0.00 71 1018.1
20260502114717 1 67 0.0 6.4 0.00 0.03 0.00 71 1017.6
20260502113955 1 74 0.0 6.4 0.00 0.05 0.00 71 1017.9
20260502113725 1 79 0.0 4.8 0.00 0.05 0.00 71 1017.8
20260502112955 1 69 0.0 3.2 0.00 0.05 0.00 71 1017.5
20260502112455 1 126 0.0 3.2 0.00 0.05 0.00 71 1018.0
20260502111954 1 69 1.6 3.2 0.00 0.05 0.00 71 1017.8
20260502111501 1 73 1.6 3.2 0.00 0.05 0.00 71 1017.6
20260502110954 1 85 1.6 3.2 0.00 0.05 0.00 70 1017.8
20260502110509 1 81 1.6 3.2 0.00 0.05 0.00 70 1017.6
20260502105953 1 84 1.6 3.2 0.00 0.05 0.00 70 1017.5
20260502105454 1 100 1.6 3.2 0.00 0.05 0.00 70 1017.8
20260502104952 1 67 0.0 3.2 0.00 0.08 0.00 70 1017.4
20260502104505 1 89 1.6 3.2 0.00 0.08 0.00 70 1017.4
20260502103955 1 117 0.0 3.2 0.00 0.08 0.00 69 1017.1
20260502103453 1 135 0.0 3.2 0.00 0.08 0.00 69 1017.2
20260502102952 1 84 1.6 3.2 0.00 0.10 0.00 69 1017.3
20260502102453 1 129 0.0 3.2 0.00 0.10 0.00 69 1017.3
20260502102223 1 63 0.0 4.8 0.00 0.10 0.00 69 1016.9
20260502101452 1 107 0.0 4.8 0.00 0.13 0.00 69 1017.3
20260502101003 1 84 1.6 4.8 0.00 0.13 0.00 69 1017.3
20260502100715 1 80 3.2 4.8 0.00 0.15 0.00 69 1017.4
20260502091449 2 89 0.0 3.2 0.00 0.20 0.00 67 1017.0
20260502091218 2 79 1.6 3.2 0.00 0.20 0.00 67 1017.0
20260502090451 2 70 1.6 4.8 0.00 0.20 0.00 67 1017.3
20260502070940 4 85 3.2 6.4 0.00 0.28 0.00 68 1016.4
20260502070442 4 107 0.0 6.4 0.00 0.28 0.00 68 1016.6
20260502065947 4 69 3.2 8.0 0.00 0.28 0.00 68 1016.6
20260502065447 4 72 3.2 8.0 0.00 0.28 0.00 68 1016.4
20260502064940 4 128 0.0 8.0 0.00 0.30 0.00 68 1016.6
20260502064453 4 56 1.6 6.4 0.00 0.33 0.00 68 1016.7
20260502063939 4 99 3.2 4.8 0.00 0.33 0.00 69 1016.5
20260502063440 4 72 1.6 4.8 0.00 0.33 0.00 69 1016.6
20260502062938 4 182 3.2 4.8 0.00 0.36 0.00 69 1016.5
20260502062703 4 95 1.6 3.2 0.00 0.36 0.00 69 1016.5
20260502061938 4 83 1.6 3.2 0.00 0.38 0.00 69 1016.6
20260502061439 4 77 3.2 3.2 0.00 0.41 0.00 69 1016.8
20260502060938 4 105 1.6 3.2 0.00 0.43 0.00 69 1016.7
20260502060439 4 89 0.0 3.2 0.00 0.43 0.00 69 1016.7
20260502055949 4 77 1.6 3.2 0.00 0.43 0.00 69 1016.7
20260502055451 4 101 0.0 3.2 0.00 0.43 0.00 69 1016.9
20260502054937 4 51 0.0 3.2 0.00 0.43 0.00 69 1016.9
20260502054438 4 76 0.0 3.2 0.00 0.43 0.00 69 1017.1
20260502053937 4 107 0.0 3.2 0.00 0.43 0.00 69 1016.9
20260502053438 4 65 1.6 3.2 0.00 0.48 0.00 69 1016.7
20260502052947 4 103 0.0 3.2 0.00 0.51 0.00 69 1016.9
20260502052657 4 124 0.0 3.2 0.00 0.51 0.00 69 1017.2
20260502051936 4 84 0.0 3.2 0.00 0.53 0.00 69 1017.1
20260502051437 4 107 1.6 3.2 0.00 0.56 0.00 69 1017.0
20260502050935 4 99 1.6 4.8 0.00 0.61 0.00 69 1016.8
20260502050657 4 76 1.6 4.8 0.00 0.66 0.00 69 1016.8
20260502045941 4 202 0.0 3.2 0.00 0.71 0.00 69 1016.9
20260502045702 4 132 0.0 3.2 0.00 0.74 0.00 69 1016.9
20260502044933 4 58 1.6 3.2 0.00 0.76 0.00 69 1017.0
20260502044658 4 89 0.0 3.2 0.00 0.76 0.00 69 1017.1
20260502043933 4 66 3.2 3.2 0.00 0.79 0.00 69 1016.8
20260502043435 4 89 1.6 3.2 0.00 0.84 0.00 69 1016.9
20260502042944 4 60 1.6 3.2 0.00 0.89 0.00 69 1016.8
20260502042436 4 99 0.0 3.2 0.00 0.89 0.00 69 1017.1
20260502041933 4 89 1.6 3.2 0.00 0.91 0.00 69 1016.8
20260502041433 3 78 1.6 3.2 0.00 0.91 0.00 69 1016.8
20260502040931 3 85 0.0 3.2 0.00 0.91 0.00 69 1016.5
20260502040433 3 88 1.6 3.2 0.00 0.94 0.00 69 1016.6
20260502035937 3 89 1.6 3.2 0.00 0.94 0.94 69 1016.7
20260502035432 3 96 1.6 3.2 0.00 0.94 0.94 69 1016.6
20260502034931 3 103 0.0 3.2 0.00 0.94 0.94 68 1016.7
20260502034432 3 73 3.2 3.2 0.00 0.94 0.94 68 1016.6
20260502033931 3 95 1.6 3.2 0.00 0.97 0.94 68 1016.4
20260502033432 3 93 0.0 3.2 0.00 0.97 0.94 68 1016.5
20260502033153 4 95 1.6 3.2 0.00 0.99 0.94 67 1016.5
20260502032432 4 89 1.6 3.2 0.00 0.99 0.94 67 1016.4
20260502031930 4 89 1.6 3.2 0.00 0.99 0.94 67 1016.4
20260502030929 4 84 0.0 3.2 0.00 1.02 0.94 67 1016.3
20260502030655 5 77 0.0 3.2 0.00 1.02 0.94 67 1016.4
20260502025936 5 82 0.0 3.2 0.00 1.02 0.94 67 1016.6
20260502025434 5 93 1.6 3.2 0.00 1.04 0.94 66 1016.5
20260502024928 5 73 1.6 4.8 0.00 1.04 0.94 67 1016.3
20260502024429 5 107 1.6 4.8 0.00 1.04 0.94 67 1016.4
20260502023928 5 56 1.6 4.8 0.00 1.04 0.94 67 1016.4
20260502023429 5 52 3.2 3.2 0.00 1.04 0.94 67 1016.4
20260502022927 5 104 1.6 3.2 0.00 1.04 0.94 67 1016.1
20260502022432 5 93 1.6 3.2 0.00 1.04 0.94 67 1016.4
20260502021927 6 114 0.0 3.2 0.00 1.04 0.94 67 1016.1
20260502021428 6 89 0.0 3.2 0.00 1.04 0.94 67 1016.2
20260502020926 6 93 3.2 4.8 0.00 1.04 0.94 67 1016.2
20260502020428 6 132 0.0 4.8 0.00 1.04 0.94 67 1016.2
20260502020149 6 67 1.6 4.8 0.00 1.07 0.94 67 1016.0
20260502015432 6 65 3.2 6.4 0.00 1.07 0.94 67 1016.2
20260502014930 6 89 0.0 6.4 0.00 1.09 0.94 67 1016.0
20260502014426 6 43 1.6 4.8 0.00 1.09 0.94 66 1016.1
20260502013925 6 70 1.6 4.8 0.00 1.09 0.94 66 1016.0
20260502013427 6 97 3.2 4.8 0.00 1.09 0.94 66 1015.9
20260502012924 6 73 0.0 3.2 0.00 1.09 0.94 66 1015.7
20260502012438 6 86 1.6 3.2 0.00 1.09 0.94 66 1015.6
20260502011928 6 68 0.0 3.2 0.00 1.09 0.94 66 1015.6
20260502011652 6 80 3.2 3.2 0.00 1.09 0.94 66 1015.7
20260502010923 6 87 1.6 3.2 0.00 1.09 0.94 66 1015.6
20260502010644 6 56 1.6 3.2 0.00 1.09 0.94 65 1015.7